Temp_Advection
nan nan nan nan nan nan nan nan nan nan nan nan nan nan nan nan nan nan nan nan nan nan nan nan nan nan nan nan nan nan nan nan nan nan nan nan nan nan nan nan nan nan nan nan
nan -0 -0 -0 -0 -0 0 -0 -1 -1 -1 -0 -0 -1 -1 -0 0 0 0 -0 -1 -0 -0 -0 -0 0 0 0 0 0 0 0 0 -0 -0 0 -0 -0 -0 0 0 0 0 nan
nan 0 -0 -0 -0 -0 -0 0 -0 -1 -1 -1 0 -1 -2 -1 -2 0 -0 0 -0 -0 -0 -0 -0 0 0 0 0 0 0 0 0 -0 -0 -0 -0 -0 -0 -0 -0 0 0 nan
nan -0 -0 -0 -0 -0 -0 -0 0 0 0 -1 -0 1 -0 -0 -1 -2 -0 0 0 -1 -1 -1 -0 -0 0 0 0 0 0 0 0 -0 -0 -0 -0 -0 -0 -0 -0 -0 -0 nan
nan 0 0 -0 -0 -0 0 -0 0 0 0 -0 -0 0 -0 -1 -1 -0 -1 -0 -0 -1 -1 -1 -0 0 0 -0 0 0 -0 0 0 -0 -0 -0 -0 -0 -0 -0 -0 -0 -0 nan
nan 0 0 -0 -0 -0 0 0 -1 -1 0 -0 -0 -0 -1 -0 0 0 -0 -0 0 -1 -1 -0 -0 -0 -0 -0 0 -0 0 0 0 0 -0 0 0 -0 -0 -0 -0 -0 -0 nan
nan 0 -0 -1 -1 -1 -1 1 -0 -0 -0 -0 -0 0 -0 -0 -0 -0 -0 0 0 0 -1 -0 -0 -0 -0 -0 -0 -0 -0 -0 0 0 -0 0 0 -0 -0 -0 -0 -0 -0 nan
nan -0 -1 -1 0 -0 -0 0 -0 0 -0 -1 -0 -0 -0 -0 -0 -0 -0 -1 -2 -0 -0 -0 -0 -0 -0 -0 -0 -0 -0 -0 -0 -0 -0 -0 -0 -0 -0 -0 -0 -0 -0 nan
nan -1 -2 -1 -0 0 0 -0 0 0 -0 -0 -0 -0 0 0 -0 0 0 -1 -1 -0 -0 -1 -0 -0 -0 -0 -0 -0 -0 -0 -0 -0 -0 -0 -0 -0 -0 -0 -0 -0 0 nan
nan -1 -2 -1 -1 -0 -0 -0 -0 -0 -0 -0 -0 -0 0 0 0 -0 -0 -0 -0 -1 -1 -0 -0 -0 -0 -0 -0 -0 -0 -0 -0 -0 -0 -0 -0 -0 -0 -0 -0 0 0 nan
nan -0 -1 -2 -0 -1 -0 -0 -1 -0 -0 -0 -0 0 -0 -0 -0 -0 0 0 -0 -1 -0 -0 -0 -0 -0 -0 -0 -0 -0 -0 -0 0 0 0 -0 -0 -0 -0 0 0 0 nan
nan 0 -1 -2 -1 -1 0 -1 -0 0 0 0 -0 -0 -0 -1 -0 -0 0 -0 -0 -0 -0 -0 -0 -0 -0 -0 -0 -0 -0 -0 0 0 0 0 0 0 -0 0 0 0 0 nan
nan 0 -0 -0 -1 -0 -1 0 -1 -0 0 -0 -0 -0 -1 -1 -0 -0 -0 -0 -0 -0 -0 -0 -0 -0 -0 -0 -0 -0 -0 -0 -0 -0 -0 0 0 0 0 0 0 0 0 nan
nan 0 0 -0 -1 -1 -1 -1 1 -0 -0 -0 0 -0 -1 -1 0 -0 -0 -0 -0 -0 -0 -0 -0 -0 -0 -0 -0 -0 -0 -0 -0 -0 -0 0 0 0 0 0 0 0 0 nan
nan 0 -1 -0 -0 -0 -0 -0 1 -0 -1 -0 -0 -0 -1 -0 -0 -0 -0 -0 -0 -0 -0 -0 -0 -0 -0 -0 -0 -0 -0 -0 -0 -0 -0 -0 0 0 0 0 0 0 0 nan
nan 0 -0 -2 -2 -1 -0 -0 0 0 0 -0 1 0 -1 -0 -1 -1 -0 -0 -0 -0 -0 -0 -0 -0 -0 -0 -0 -0 -0 -0 -0 -0 -0 -0 -0 -0 -0 0 0 0 0 nan
nan -0 -0 -1 -1 -1 -0 -0 0 0 -1 -1 -0 -1 -1 -0 -1 -1 -0 -0 -0 -0 -0 -0 -0 -0 -0 -0 -0 -0 -0 -0 -0 -0 -0 -0 -0 -0 -0 0 0 0 -0 nan
nan -1 -0 -0 -1 -0 -0 -3 -1 1 0 1 1 1 -0 -0 -1 -1 -0 -0 -0 -0 -0 -0 -0 -0 -0 -0 -0 -0 -0 -0 -0 -0 -0 -0 -0 -0 -0 0 -0 -0 -0 nan
nan -0 -0 -0 -0 -0 -0 -1 -0 -0 -1 -0 -0 0 -0 -1 -0 -0 -0 -0 -0 -0 -0 -0 -0 -0 -0 -0 -0 -0 -0 -0 -0 -0 -0 0 -0 -0 0 0 -0 -0 -0 nan
nan -0 -0 -0 -0 -0 -0 -2 -2 -0 -1 -0 -0 0 -0 -1 -0 -0 -0 -0 -1 -0 -1 -1 -1 -0 -0 -0 -0 -0 -0 -0 -0 -0 0 0 -0 0 1 0 1 0 -0 nan
nan -0 -0 -0 -0 -0 -1 -4 -1 -1 -0 -1 -0 0 0 0 -0 -1 -0 -0 -0 -1 -1 -1 -0 -0 -0 -0 -0 -0 -0 -0 -0 0 0 -0 0 1 1 1 0 0 1 nan
nan -0 -0 -0 -0 0 -1 -1 -1 -0 -0 -0 -0 -0 -0 -0 0 -0 -0 -0 -1 -1 -1 -1 -1 -0 -0 -0 -0 -0 -0 -0 -0 0 0 0 1 1 1 1 1 1 -1 nan
nan -0 -0 -0 -0 0 -0 -2 -2 -1 -1 -0 -0 0 -0 -0 -0 -0 -0 -0 -1 -1 -1 -1 -1 -0 -0 -0 -0 -0 -0 -0 0 0 0 0 1 0 0 0 -0 -1 -1 nan
nan 0 0 -0 0 0 -0 -0 -0 -1 -1 -0 -0 0 -0 -0 -0 -0 -0 -0 -0 -0 -1 -1 -1 -0 -0 -0 -0 -0 -0 0 -0 -1 0 0 -0 0 0 -0 -1 -1 -1 nan
nan -0 0 0 0 -2 -0 -2 -2 -1 -0 -0 -0 0 -0 -0 -0 -0 -0 -0 -0 -0 -0 -1 -0 -0 -0 -0 -0 -0 -0 0 -0 -0 -0 -0 0 0 -0 -0 -1 -1 -1 nan
nan nan nan nan nan nan nan nan nan nan nan nan nan nan nan nan nan nan nan nan nan nan nan nan nan nan nan nan nan nan nan nan nan nan nan nan nan nan nan nan nan nan nan nan
Wind_Speed
3 7 6 14 13 12 13 14 15 16 14 14 16 19 16 18 21 21 21 23 24 20 19 19 16 13 13 12 11 7 4 6 6 7 12 11 12 12 13 15 15 16 19 18
9 2 14 11 12 11 12 15 16 14 15 17 19 23 22 15 21 25 24 20 23 20 21 21 16 14 11 10 8 6 3 2 7 9 8 13 13 12 14 12 17 16 15 22
8 11 8 7 9 11 11 13 14 16 18 17 19 19 19 17 23 2 13 13 19 20 20 22 17 14 11 9 8 4 2 4 10 13 7 11 10 11 13 16 16 19 21 19
4 7 9 11 11 12 12 15 16 17 16 12 14 12 13 14 18 18 6 2 19 24 23 21 19 14 11 11 6 5 2 3 8 11 10 12 12 14 15 17 19 23 19 21
6 8 10 10 12 11 13 14 15 17 16 17 14 8 12 13 15 14 16 4 7 23 28 23 18 15 13 7 7 5 2 5 9 9 12 13 13 15 16 19 23 21 22 19
11 3 2 8 13 13 10 15 18 15 12 5 12 7 7 6 7 6 7 13 7 22 25 21 19 17 11 8 7 2 2 6 9 10 12 13 15 19 19 20 22 22 23 23
17 5 3 10 14 15 15 15 5 4 2 3 6 5 6 11 13 10 9 6 8 24 29 26 19 15 10 8 4 2 3 6 9 10 12 14 16 18 19 20 23 25 25 26
8 2 14 19 14 11 15 11 4 4 6 11 11 3 1 9 12 12 9 17 27 30 26 22 17 13 10 6 3 1 4 6 8 11 13 14 17 18 19 22 23 24 26 27
8 6 23 15 9 8 10 9 4 7 8 4 5 4 9 6 7 10 10 18 24 21 20 20 15 12 9 6 2 2 4 7 9 11 14 15 17 19 21 23 23 25 27 27
3 8 11 17 19 8 5 8 4 4 5 5 5 4 5 10 9 9 7 14 16 16 20 16 13 12 9 5 3 6 7 8 10 13 15 16 18 20 22 23 26 26 29 29
12 2 12 16 7 10 8 3 5 5 2 2 5 1 5 9 10 6 8 11 14 20 17 14 13 11 8 5 5 6 7 9 11 14 15 18 20 22 24 25 26 28 30 30
8 6 11 23 17 15 10 7 4 3 2 2 2 1 9 13 6 9 10 16 18 16 15 14 12 10 7 6 5 7 8 11 12 14 17 20 21 24 26 27 28 29 31 30
9 5 8 6 8 15 10 9 5 5 2 3 3 2 12 17 7 10 13 15 16 17 16 14 12 9 7 6 6 6 8 10 13 14 17 21 23 26 28 29 29 29 29 30
2 7 4 8 15 13 15 18 6 4 2 2 3 7 11 11 6 13 15 16 17 16 15 13 11 9 7 6 6 7 9 11 13 15 18 22 25 26 28 29 29 29 30 37
6 11 16 17 19 19 19 18 13 4 8 4 5 7 10 9 14 16 18 18 17 16 14 12 10 9 6 7 6 7 9 12 14 16 19 21 23 25 28 29 30 31 34 37
15 10 17 20 17 19 14 11 9 10 7 11 11 6 8 7 17 17 18 18 17 16 13 12 10 8 7 7 6 7 10 12 15 17 19 21 24 26 28 30 32 33 34 33
8 6 11 6 14 17 2 7 12 6 11 8 2 11 10 5 13 16 18 17 16 15 14 12 10 8 8 7 6 8 10 12 15 17 19 21 24 27 28 30 32 35 35 38
7 11 8 10 14 1 5 19 13 19 18 16 13 7 7 10 15 16 16 17 17 16 14 12 11 10 10 6 9 10 11 13 15 17 19 21 25 27 30 32 34 34 36 37
2 6 5 5 7 5 5 13 6 10 18 16 13 9 8 20 20 16 16 17 18 17 15 13 12 11 10 9 9 10 11 12 15 18 20 23 27 29 31 34 34 33 32 34
5 4 3 4 5 3 7 26 22 6 11 21 17 5 11 17 8 9 18 20 20 17 16 15 14 12 12 10 9 10 11 13 16 18 20 21 24 29 27 27 32 31 32 33
4 2 4 4 4 5 10 34 13 10 9 20 19 2 7 4 8 24 24 22 19 18 17 16 14 12 12 10 10 10 12 15 14 15 19 24 26 26 27 29 31 33 37 37
3 5 1 2 3 4 28 22 13 11 21 19 19 16 18 23 28 27 25 23 21 20 18 15 14 13 12 11 9 10 13 12 13 16 19 21 22 29 33 33 36 39 42 46
1 1 4 4 5 17 26 24 24 23 24 13 13 8 14 20 22 24 24 23 22 19 17 15 15 14 13 10 7 11 12 12 14 18 23 27 26 28 33 35 37 41 44 49
6 3 3 8 3 21 28 17 26 25 26 18 8 3 13 19 21 23 22 23 20 18 16 15 15 14 14 10 9 11 12 12 13 17 18 22 26 29 31 34 36 39 43 46
13 15 8 12 19 23 12 34 34 32 24 16 6 7 13 19 20 21 22 21 20 18 17 15 15 14 14 10 11 11 11 10 13 15 16 18 21 25 28 32 34 36 39 41
10 4 1 4 18 19 29 39 38 29 20 11 4 9 14 19 20 20 21 20 20 19 17 15 15 14 14 12 11 11 10 10 13 12 15 17 17 18 21 25 28 30 32 34
Wind_Direction
307 305 324 7 358 338 321 304 301 299 304 313 301 298 282 282 227 200 203 192 174 180 179 173 178 167 164 164 157 184 215 289 338 323 308 317 321 320 316 310 316 310 312 306
295 308 16 354 328 300 286 295 300 318 338 334 312 295 291 276 284 207 194 191 170 169 171 162 153 165 175 167 168 182 223 308 301 318 350 321 319 330 319 310 307 323 301 313
305 35 354 321 308 308 316 308 335 319 315 300 291 307 320 337 20 191 98 196 165 159 164 147 154 167 176 172 183 180 212 307 314 333 337 312 345 318 315 319 324 309 315 310
326 355 326 320 304 339 316 342 329 310 308 303 307 302 55 41 49 35 52 103 182 158 151 149 160 164 181 181 163 189 196 324 326 339 350 344 334 331 329 326 320 318 322 314
52 336 337 311 356 332 307 325 303 284 277 283 285 296 88 55 48 30 334 350 163 149 150 148 157 165 172 163 170 192 38 335 341 352 340 345 338 333 337 329 319 329 316 324
339 267 289 354 323 294 269 289 296 332 304 318 13 337 43 25 34 53 4 324 152 136 137 143 150 151 152 158 166 85 10 336 344 348 344 344 344 340 334 332 329 327 329 321
325 116 33 27 331 337 347 317 338 340 338 299 285 324 61 17 13 356 333 91 119 134 135 138 130 137 149 149 118 48 349 347 347 346 348 344 343 342 332 332 332 331 330 327
340 266 14 347 323 320 307 329 47 298 328 316 336 78 303 327 27 14 34 97 102 109 119 117 130 143 147 127 114 52 6 354 354 353 348 348 343 337 337 336 337 335 330 329
345 283 336 312 346 321 332 351 236 308 349 313 1 113 25 63 70 44 70 101 103 104 113 120 128 135 132 133 123 47 23 9 2 354 351 347 344 343 342 341 339 339 335 336
224 294 302 337 322 288 338 2 359 10 0 333 317 28 22 22 40 83 89 94 108 117 112 119 130 132 131 131 76 39 29 15 360 356 356 348 347 348 345 344 345 344 344 342
335 221 295 314 310 13 344 353 38 102 60 350 319 74 299 34 36 79 108 137 129 114 122 132 131 128 120 106 62 42 26 5 7 1 356 349 352 352 351 351 350 350 349 349
349 296 295 295 290 20 354 64 96 112 133 228 235 303 331 336 82 122 126 113 114 126 135 133 130 124 111 92 55 41 13 12 8 3 355 353 357 356 355 358 357 356 355 357
332 317 320 301 47 357 334 345 118 116 108 230 283 327 324 322 97 115 122 127 134 138 134 132 127 121 106 80 62 32 21 16 13 4 359 357 2 360 1 1 2 358 0 355
230 282 302 278 296 279 291 306 333 183 182 196 228 293 305 306 152 133 140 143 143 142 139 134 127 116 100 79 60 32 21 20 15 7 6 2 6 1 5 5 5 3 5 1
298 308 303 301 299 299 291 293 299 198 195 189 194 199 282 281 144 146 147 148 147 145 140 136 127 115 101 77 54 39 29 23 17 12 8 8 8 6 8 7 10 7 6 5
319 296 311 289 281 272 281 306 336 347 295 214 248 350 300 69 116 138 151 152 151 147 142 132 124 115 95 84 62 43 33 29 23 17 11 9 12 9 12 10 10 13 13 6
305 293 307 288 341 317 299 323 21 242 267 102 160 220 246 239 133 146 153 154 150 145 138 131 122 111 101 88 70 52 38 32 28 21 12 15 16 15 14 15 14 17 12 13
284 300 292 298 312 335 313 299 287 57 42 31 31 28 116 113 130 141 153 150 148 141 136 129 121 116 104 98 72 58 43 34 30 25 17 17 21 19 16 19 18 17 15 16
226 303 312 327 324 305 285 331 343 82 46 27 17 60 90 108 118 128 143 144 141 136 134 127 125 120 112 98 80 63 50 40 36 29 21 20 22 19 21 23 21 19 22 25
52 74 10 336 311 305 324 331 322 112 33 6 8 28 123 145 127 132 140 138 134 134 132 128 125 120 111 100 87 70 56 45 40 32 25 27 30 21 25 30 26 32 38 42
340 129 230 247 262 276 293 331 20 57 335 358 347 81 156 224 151 143 135 135 136 134 133 129 124 120 114 105 88 72 61 53 44 37 36 35 37 29 38 46 49 50 46 52
328 341 8 290 259 271 4 344 24 336 329 349 350 52 84 104 119 131 135 138 137 135 133 129 128 122 113 104 96 80 70 63 55 46 42 39 43 48 51 54 52 53 56 54
13 97 325 301 288 309 317 302 309 345 339 348 352 52 120 127 130 133 137 138 138 139 136 134 130 123 114 109 106 90 78 69 60 55 55 52 52 55 59 58 55 54 52 54
349 331 286 316 330 328 308 346 354 341 331 345 343 126 139 138 138 137 140 140 142 143 140 139 131 124 120 125 107 94 87 76 71 64 56 55 58 57 56 57 57 55 53 51
297 296 299 290 295 319 304 333 330 330 334 342 332 159 151 147 145 144 144 146 147 145 145 139 136 133 127 128 116 103 96 87 77 70 66 62 54 55 55 55 54 53 52 49
293 33 321 290 315 304 296 307 317 326 340 334 296 152 155 155 151 150 150 151 150 149 147 143 140 140 134 132 127 116 106 96 83 76 76 69 65 60 55 57 58 58 58 57
Height
1468 1472 1467 1466 1466 1468 1469 1468 1464 1455 1448 1448 1448 1446 1444 1448 1448 1451 1457 1464 1471 1480 1488 1494 1501 1506 1509 1509 1512 1515 1515 1513 1513 1511 1508 1506 1504 1502 1499 1497 1494 1491 1488 1485
1469 1472 1468 1471 1470 1470 1470 1467 1462 1452 1451 1456 1456 1451 1446 1443 1438 1441 1448 1458 1468 1478 1486 1492 1500 1506 1509 1511 1514 1515 1515 1513 1511 1508 1507 1504 1502 1500 1498 1495 1491 1489 1485 1482
1478 1474 1475 1474 1473 1470 1467 1467 1466 1470 1463 1458 1453 1449 1441 1435 1435 1432 1446 1457 1466 1477 1486 1492 1500 1506 1510 1512 1515 1515 1515 1513 1510 1507 1505 1502 1500 1497 1494 1491 1489 1484 1482 1479
1475 1475 1475 1473 1472 1469 1475 1466 1468 1469 1468 1472 1454 1466 1467 1452 1452 1455 1462 1465 1469 1474 1483 1492 1498 1505 1511 1513 1514 1515 1514 1512 1509 1506 1503 1499 1497 1495 1491 1488 1485 1481 1479 1475
1480 1477 1479 1478 1476 1475 1476 1470 1469 1465 1462 1458 1455 1461 1465 1458 1466 1470 1468 1466 1468 1473 1480 1491 1499 1504 1510 1513 1515 1514 1513 1511 1508 1505 1501 1498 1496 1493 1489 1486 1482 1479 1475 1473
1476 1473 1476 1480 1477 1472 1469 1469 1462 1459 1458 1472 1467 1472 1479 1477 1473 1471 1472 1471 1470 1475 1483 1491 1498 1503 1511 1514 1513 1514 1514 1511 1507 1505 1501 1498 1495 1491 1487 1484 1480 1476 1472 1468
1480 1472 1476 1482 1480 1472 1470 1472 1483 1489 1482 1486 1462 1470 1494 1482 1480 1478 1474 1470 1474 1477 1483 1490 1499 1507 1511 1512 1514 1515 1513 1511 1507 1504 1501 1497 1494 1490 1486 1483 1478 1474 1469 1464
1508 1496 1490 1487 1485 1485 1478 1476 1495 1509 1493 1482 1459 1489 1499 1487 1485 1482 1475 1475 1479 1483 1488 1496 1503 1508 1512 1514 1516 1515 1513 1510 1507 1504 1500 1497 1493 1489 1486 1482 1477 1473 1467 1461
1531 1512 1495 1488 1485 1485 1481 1485 1483 1488 1488 1487 1479 1493 1493 1483 1487 1486 1482 1482 1487 1493 1497 1501 1506 1512 1514 1515 1514 1513 1511 1509 1506 1503 1499 1497 1493 1489 1485 1480 1476 1470 1464 1457
1533 1530 1503 1493 1490 1482 1483 1482 1497 1499 1513 1505 1493 1500 1499 1488 1486 1488 1488 1491 1494 1498 1502 1506 1511 1514 1515 1515 1515 1513 1512 1509 1506 1503 1500 1496 1493 1488 1484 1479 1474 1467 1461 1455
1524 1528 1512 1503 1491 1496 1501 1495 1503 1514 1524 1521 1510 1506 1494 1489 1491 1493 1494 1497 1498 1502 1507 1511 1514 1516 1517 1517 1516 1514 1512 1509 1506 1504 1501 1496 1492 1488 1484 1479 1472 1467 1460 1453
1530 1529 1522 1507 1498 1502 1493 1498 1514 1518 1520 1521 1521 1505 1500 1497 1493 1495 1496 1499 1502 1507 1510 1513 1516 1518 1519 1518 1517 1515 1513 1510 1508 1505 1501 1497 1492 1489 1484 1478 1472 1466 1459 1452
1539 1530 1526 1502 1508 1511 1507 1498 1507 1518 1522 1519 1515 1511 1501 1495 1494 1497 1500 1503 1507 1509 1512 1516 1518 1520 1520 1519 1519 1516 1513 1511 1509 1506 1503 1498 1493 1489 1484 1478 1473 1466 1459 1451
1542 1534 1537 1535 1525 1513 1509 1496 1493 1507 1516 1514 1515 1512 1503 1494 1494 1499 1503 1506 1508 1512 1515 1518 1520 1522 1521 1521 1520 1517 1515 1513 1511 1508 1504 1499 1496 1491 1486 1480 1474 1466 1460 1450
1536 1535 1529 1520 1513 1507 1503 1494 1489 1500 1503 1509 1509 1513 1496 1489 1492 1498 1503 1507 1510 1514 1517 1520 1522 1523 1523 1523 1521 1519 1517 1515 1513 1509 1505 1502 1498 1494 1489 1482 1475 1468 1461 1451
1541 1535 1531 1521 1505 1497 1493 1487 1485 1487 1487 1491 1492 1502 1490 1489 1493 1499 1503 1507 1511 1515 1518 1521 1523 1524 1525 1524 1523 1521 1519 1517 1515 1512 1508 1505 1501 1497 1491 1483 1477 1471 1463 1455
1545 1538 1530 1517 1501 1498 1499 1494 1488 1496 1488 1489 1505 1494 1487 1491 1494 1500 1504 1508 1512 1516 1520 1523 1525 1526 1527 1526 1525 1524 1522 1520 1518 1514 1511 1507 1504 1500 1493 1487 1480 1474 1464 1456
1547 1540 1527 1520 1509 1508 1509 1497 1484 1481 1481 1480 1481 1481 1481 1485 1493 1500 1505 1509 1513 1518 1521 1524 1527 1528 1529 1528 1527 1527 1526 1523 1521 1518 1514 1510 1507 1503 1496 1490 1483 1476 1468 1461
1549 1547 1540 1533 1526 1520 1512 1507 1490 1488 1493 1490 1489 1487 1486 1490 1497 1503 1507 1511 1516 1520 1523 1527 1529 1530 1531 1531 1531 1530 1529 1527 1524 1521 1517 1513 1511 1507 1500 1494 1488 1482 1475 1466
1548 1551 1554 1546 1535 1519 1514 1503 1482 1481 1503 1495 1494 1490 1491 1494 1498 1505 1509 1514 1519 1523 1526 1529 1531 1533 1533 1534 1534 1533 1532 1530 1528 1526 1522 1518 1515 1511 1505 1499 1494 1488 1481 1473
1542 1550 1550 1545 1542 1529 1526 1515 1493 1511 1520 1502 1497 1493 1494 1494 1494 1504 1511 1517 1522 1525 1528 1532 1534 1535 1536 1537 1537 1536 1535 1534 1533 1531 1527 1523 1519 1516 1510 1506 1499 1493 1486 1480
1549 1550 1543 1542 1538 1529 1530 1520 1520 1524 1515 1508 1501 1499 1498 1500 1502 1508 1514 1520 1524 1528 1531 1535 1536 1537 1539 1541 1540 1539 1539 1539 1538 1535 1532 1529 1525 1521 1517 1512 1508 1501 1492 1485
1551 1559 1556 1556 1538 1534 1538 1535 1528 1522 1515 1510 1507 1505 1505 1507 1510 1514 1518 1523 1527 1531 1534 1537 1538 1540 1543 1544 1543 1542 1543 1543 1541 1539 1537 1535 1531 1528 1523 1519 1515 1509 1502 1494
1553 1554 1553 1553 1536 1536 1534 1530 1527 1522 1515 1511 1509 1508 1509 1512 1515 1518 1522 1526 1530 1534 1536 1539 1541 1543 1545 1546 1546 1546 1547 1547 1546 1545 1543 1541 1538 1535 1531 1527 1523 1518 1512 1506
1554 1552 1548 1547 1542 1536 1524 1526 1523 1518 1515 1511 1509 1509 1511 1514 1518 1522 1525 1529 1533 1536 1538 1541 1543 1545 1548 1548 1548 1549 1550 1551 1550 1549 1548 1547 1545 1542 1539 1535 1532 1528 1523 1520
1549 1552 1555 1547 1548 1547 1535 1526 1522 1518 1513 1511 1508 1510 1512 1516 1520 1524 1528 1531 1534 1537 1540 1543 1545 1547 1550 1550 1551 1552 1553 1554 1554 1553 1553 1553 1551 1549 1547 1545 1542 1539 1536 1533